Flag for Germany Weather past 2 weeks in Garmisch-Partenkirchen, Bavaria, Germany

Now
41 °F

Sprinkles. Broken clouds.


Feels Like: 31 °F
Forecast: 29 / 38 °F
Wind: 25 mph from West

Location: Innsbruck-Flughafen

Current Time: Oct 22, 2014 at 12:20:06 PM

Latest Report: Oct 22, 2014 at 11:50 AM


Visibility: N/A

Pressure: 29.98 "Hg

Humidity: 70%

Dew point: 32 °F

Location of Garmisch-PartenkirchenLocation

Historic Weather in Garmisch-Partenkirchen — Graph

°F

Garmisch-Partenkirchen temperature yesterday

Maximum temperature yesterday: 66 °F (at 2:50 PM)
Minimum temperature yesterday: 48 °F (at 11:50 PM)
Average temperature yesterday: 57 °F

Past Weeks' High & Low Weather Summary

 TemperatureHumidityPressure
High77 °F (Oct 9, 3:20 PM)100% (Oct 11, 10:50 PM)30.33 "Hg (Oct 11, 10:50 PM)
Low39 °F (Oct 22, 9:20 AM)34% (Oct 9, 1:50 PM)29.62 "Hg (Oct 21, 9:20 PM)
Average57 °F77%29.99 "Hg
* Reported Oct 7 10:20 AM — Oct 22 10:50 AM, Garmisch-Partenkirchen, Weather by CustomWeather, © 2014

Note: Actual official high and low records may vary slightly from our data, if they occured in-between our weather recording intervals... More about our weather records

Advertising

Garmisch-Partenkirchen weather history for previous 24 hours

 ConditionsComfort  
Time TempWeatherWind HumidityBarometerVisibility
10:50 AM
Oct 22
43 °FSprinkles. Broken clouds.17 mph66%29.98 "HgN/A
10:20 AM41 °FSprinkles. Broken clouds.21 mph76%29.98 "HgN/A
9:50 AM39 °FSprinkles. Broken clouds.5 mph87%29.98 "HgN/A
9:20 AM39 °FSprinkles. Broken clouds.6 mph81%29.98 "HgN/A
8:50 AM41 °FSprinkles. Partly sunny.15 mph76%29.98 "HgN/A
8:20 AM41 °FSprinkles. Partly cloudy.3 mph81%29.95 "HgN/A
7:50 AM41 °FSprinkles. Partly cloudy.7 mph81%29.92 "HgN/A
7:20 AM41 °FSprinkles. Partly cloudy.14 mph81%29.92 "HgN/A
6:50 AM41 °FSprinkles. Partly cloudy.2 mph87%29.92 "HgN/A
6:20 AM41 °FSprinkles. Partly cloudy.14 mph81%29.89 "HgN/A
5:50 AM43 °FRain showers. Partly cloudy.17 mph76%29.89 "Hg3 mi
5:20 AM43 °FSprinkles. Passing clouds.17 mph76%29.86 "HgN/A
4:50 AM43 °FRain showers. Partly cloudy.21 mph76%29.86 "HgN/A
4:20 AM46 °FSprinkles. Partly cloudy.21 mph62%29.89 "HgN/A
3:50 AM46 °FPartly cloudy.17 mph62%29.86 "HgN/A
3:20 AM48 °FPassing clouds.18 mph50%29.89 "HgN/A
2:50 AM48 °FPassing clouds.18 mph54%29.89 "HgN/A
2:20 AM48 °FSprinkles. Passing clouds.21 mph58%29.89 "HgN/A
1:50 AM48 °FPassing clouds.22 mph62%29.89 "HgN/A
1:20 AM46 °FPassing clouds.7 mph71%29.92 "HgN/A
12:50 AM46 °FPartly cloudy.14 mph71%29.92 "HgN/A
12:20 AM46 °FSprinkles. Passing clouds.21 mph71%29.92 "HgN/A
11:50 PM
Oct 21
48 °FPartly cloudy.22 mph66%29.89 "HgN/A
11:20 PM50 °FPassing clouds.33 mph62%29.86 "HgN/A
10:50 PM50 °FThundershowers. Partly cloudy.37 mph76%29.80 "Hg3 mi
10:20 PM55 °FStrong thunderstorms. Partly cloudy.17 mph94%29.68 "Hg4 mi
9:50 PM55 °FPartly cloudy.7 mph88%29.65 "HgN/A
9:20 PM55 °FPassing clouds.2 mph88%29.62 "HgN/A
8:50 PM54 °FPassing clouds.2 mph94%29.68 "HgN/A
8:20 PM55 °FPassing clouds.2 mph88%29.71 "HgN/A
7:50 PM55 °FPassing clouds.3 mph88%29.71 "HgN/A
7:20 PM57 °FPassing clouds.2 mph88%29.74 "HgN/A
6:50 PM59 °FPartly sunny.2 mph82%29.74 "HgN/A
6:20 PM59 °FPartly sunny.3 mph82%29.77 "HgN/A
5:50 PM61 °FPartly sunny.3 mph77%29.77 "HgN/A
5:20 PM63 °FBroken clouds.5 mph73%29.77 "HgN/A
4:50 PM63 °FBroken clouds.3 mph73%29.77 "HgN/A
4:20 PM64 °FBroken clouds.5 mph68%29.80 "HgN/A
3:50 PM63 °FBroken clouds.3 mph73%29.80 "HgN/A
3:20 PM64 °FBroken clouds.3 mph64%29.83 "HgN/A
2:50 PM66 °FBroken clouds.2 mph60%29.83 "HgN/A
2:20 PM64 °FScattered clouds.2 mph68%29.86 "HgN/A
1:50 PM63 °FScattered clouds.3 mph73%29.89 "HgN/A
1:20 PM61 °FScattered clouds.5 mph72%29.92 "HgN/A
12:50 PM61 °FScattered clouds.3 mph72%29.92 "HgN/A
12:20 PM61 °FPartly sunny.3 mph77%29.95 "HgN/A
Weather by CustomWeather, © 2014

See weather overviewHow to use our weather pages